sat.trackr.live / text

‹ back to catalog

STARLINK-3400

NORAD 51128 · 2022-005AA

PAYLOAD ACTIVE UNKNOWN

§ Identity

Operator
Country
US
Launch date
2022-01-19
Launch site
AFETR
Launch vehicle
Mass (kg)
RCS (m²)

Purposes: comms

External: N2YO · Heavens-Above · Gunter

§ Orbital elements

Epoch: 2026-05-24T18:41:05.798976Z

Period
95.44 min
Inclination
53.2128°
Eccentricity
0.0001227
Mean motion
15.08840402 rev/d
Perigee alt
538.9 km
Apogee alt
540.6 km
Semi-major
6,917.9 km
B*
1.1923e-4
RAAN
317.5460°
Arg perigee
99.4826°
Mean anomaly
260.6305°
Rev number
24,021

§ Raw data

STARLINK-34001 51128U 22005AA  26144.77853934  .00001610  00000+0  11923-3 0  99952 51128  53.2128 317.5460 0001227  99.4826 260.6305 15.08840402240219

JSON: /api/v1/satellites/51128 · /tle

For live sub-satellite position, see the globe view (requires WebGL).

§ Visibility from observer

Set your observer location to see the next 7 days of passes ≥ 10°. The values pass through the URL so the page stays shareable.

No JS? Fill the form by hand. The geolocation button needs JavaScript.